Change the Weather History Date:

Monday, January 23, 2012

  Actual Average Record
Temperature  
Mean Temperature 43 °F 26 °F  
Max Temperature 52 °F 34 °F 60 °F (1967)
Min Temperature 34 °F 19 °F -10 °F (1987)
Degree Days  
Heating Degree Days 22 39  
Month to date heating degree days 790 893  
Since 1 July heating degree days 2573 3068  
Cooling Degree Days 0 0  
Month to date cooling degree days 0 0  
Year to date cooling degree days 0 0  
Moisture  
Dew Point 38 °F    
Average Humidity 78    
Maximum Humidity 86    
Minimum Humidity 70    
Precipitation  
Precipitation 0.52 in 0.06 in 0.56 in (1953)
Month to date precipitation 2.31 1.42  
Year to date precipitation 2.31 1.42  
Sea Level Pressure  
Sea Level Pressure 29.64 in    
Wind  
Wind Speed 16 mph (WSW)    
Max Wind Speed 29 mph    
Max Gust Speed 38 mph    
Visibility 7 miles    
Events Rain , Thunderstorm    
T = Trace of Precipitation, MM = Missing Value Source: NWS Daily Summary

Daily Weather History Graph

Daily Weather History Graph

Search for Another Location

Airport or City:

Trip Planner

Search our weather history database for the weather conditions in past years. The results will help you decide how hot, cold, wet, or windy it might be!

Date:

Astronomy

Jan. 23, 2012 Rise Set
Actual Time 8:04 AM EST 5:54 PM EST
Civil Twilight 7:35 AM EST 6:24 PM EST
Nautical Twilight 7:02 AM EST 6:57 PM EST
Astronomical Twilight 6:29 AM EST 7:29 PM EST
Moon 7:59 AM EST (1/23) 6:42 PM EST (1/23)
Length of Visible Light 10h 48m
Length of Day
9h 49m
New Moon, 0% of the Moon is Illuminated
Jan 23
New Moon
Jan 30
First Quarter
Feb 7
Full
Feb 14
Last Quarter
Feb 21
New

Hourly Weather History & Observations

Time (EST) Temp. Windchill Dew Point Humidity Pressure Visibility Wind Dir Wind Speed Gust Speed Precip Events Conditions
12:54 AM 50.0 °F - 48.0 °F 93% 29.50 in 3.0 mi SSE 19.6 mph 31.1 mph 0.07 in Rain Heavy Rain
1:02 AM 50.0 °F - 48.2 °F 94% 29.55 in 2.5 mi West 24.2 mph 28.8 mph 0.04 in Rain Heavy Rain
1:10 AM 50.0 °F - 48.2 °F 94% 29.55 in 2.0 mi WSW 10.4 mph 28.8 mph 0.14 in Rain Heavy Rain
1:17 AM 50.0 °F - 48.2 °F 94% 29.56 in 3.0 mi SW 10.4 mph - 0.16 in Rain Rain
1:27 AM 50.0 °F - 48.2 °F 94% 29.55 in 4.0 mi SSW 6.9 mph - 0.19 in Rain , Thunderstorm Rain
1:54 AM 50.0 °F - 48.0 °F 93% 29.58 in 4.0 mi SSW 9.2 mph - 0.27 in Rain , Thunderstorm Thunderstorms and Rain
2:02 AM 50.0 °F - 48.2 °F 94% 29.56 in 4.0 mi SSW 8.1 mph - 0.04 in Rain Heavy Rain
2:54 AM 50.0 °F - 46.9 °F 89% 29.50 in 10.0 mi SSE 12.7 mph - 0.16 in Rain Light Rain
3:54 AM 48.9 °F - 45.0 °F 86% 29.49 in 10.0 mi SSE 10.4 mph - 0.00 in   Scattered Clouds
4:54 AM 48.0 °F - 44.1 °F 86% 29.47 in 10.0 mi South 13.8 mph 20.7 mph N/A   Mostly Cloudy
5:54 AM 48.0 °F - 44.1 °F 86% 29.46 in 10.0 mi South 15.0 mph 24.2 mph N/A   Mostly Cloudy
6:54 AM 48.9 °F - 45.0 °F 86% 29.46 in 10.0 mi South 11.5 mph 19.6 mph N/A   Overcast
7:19 AM 50.0 °F - 46.4 °F 87% 29.46 in 10.0 mi SSW 11.5 mph 19.6 mph N/A   Overcast
7:54 AM 51.1 °F - 46.9 °F 86% 29.46 in 10.0 mi SSW 10.4 mph 19.6 mph N/A   Overcast
8:08 AM 51.8 °F - 46.4 °F 82% 29.46 in 2.5 mi SW 13.8 mph 21.9 mph 0.01 in Rain Light Rain
8:19 AM 51.8 °F - 48.2 °F 88% 29.46 in 6.0 mi SSW 15.0 mph 20.7 mph 0.02 in Rain Light Rain
8:54 AM 51.1 °F - 46.9 °F 86% 29.47 in 10.0 mi SW 13.8 mph 23.0 mph 0.02 in   Overcast
9:33 AM 48.2 °F - 44.6 °F 87% 29.50 in 2.5 mi WSW 16.1 mph 26.5 mph N/A   Haze
9:41 AM 46.4 °F 39.8 °F 44.6 °F 93% 29.51 in 1.0 mi WSW 16.1 mph 24.2 mph 0.00 in Rain Light Rain
9:47 AM 46.4 °F 39.2 °F 44.6 °F 93% 29.52 in 2.5 mi WSW 18.4 mph 29.9 mph 0.00 in Rain Light Rain
9:54 AM 46.0 °F 39.3 °F 43.0 °F 89% 29.53 in 2.5 mi WSW 16.1 mph 31.1 mph 0.00 in Rain Light Rain
10:12 AM 42.8 °F 33.8 °F 39.2 °F 87% 29.55 in 9.0 mi WSW 21.9 mph 36.8 mph 0.00 in   Overcast
10:54 AM 39.9 °F 30.2 °F 36.0 °F 86% 29.60 in 10.0 mi West 20.7 mph 33.4 mph 0.00 in   Overcast
11:54 AM 37.9 °F 27.3 °F 32.0 °F 79% 29.65 in 6.0 mi West 21.9 mph 31.1 mph N/A   Haze
12:29 PM 37.4 °F 25.9 °F 30.2 °F 75% 29.65 in 6.0 mi WSW 25.3 mph 36.8 mph N/A   Haze
12:54 PM 36.0 °F 24.2 °F 30.0 °F 79% 29.66 in 6.0 mi West 24.2 mph 38.0 mph N/A   Haze
1:54 PM 36.0 °F 28.0 °F 30.0 °F 79% 29.70 in 7.0 mi West 11.5 mph 27.6 mph N/A   Overcast
2:54 PM 36.0 °F 25.0 °F 28.9 °F 76% 29.73 in 8.0 mi West 20.7 mph 34.5 mph N/A   Overcast
3:54 PM 36.0 °F 24.2 °F 27.0 °F 70% 29.76 in 10.0 mi West 24.2 mph 33.4 mph N/A   Overcast
4:54 PM 35.1 °F 24.5 °F 26.1 °F 70% 29.81 in 8.0 mi West 18.4 mph 29.9 mph N/A   Overcast
5:54 PM 35.1 °F 24.8 °F 27.0 °F 72% 29.85 in 8.0 mi West 17.3 mph 27.6 mph N/A   Overcast
6:54 PM 35.1 °F 24.8 °F 26.1 °F 70% 29.90 in 9.0 mi West 17.3 mph 26.5 mph N/A   Overcast
7:43 PM 35.6 °F 24.5 °F 26.6 °F 70% 29.90 in 10.0 mi West 20.7 mph 28.8 mph N/A   Overcast
7:54 PM 35.1 °F 25.5 °F 26.1 °F 70% 29.92 in 10.0 mi West 15.0 mph 25.3 mph N/A   Overcast
8:32 PM 35.6 °F 26.2 °F 26.6 °F 70% 29.93 in 10.0 mi West 15.0 mph 34.5 mph N/A   Overcast
8:54 PM 35.1 °F 25.5 °F 26.1 °F 70% 29.95 in 10.0 mi WSW 15.0 mph 23.0 mph N/A   Overcast
9:54 PM 34.0 °F 25.5 °F 26.1 °F 73% 29.96 in 10.0 mi West 11.5 mph - N/A   Overcast
10:54 PM 34.0 °F 25.0 °F 26.1 °F 73% 29.96 in 10.0 mi West 12.7 mph - N/A   Overcast
11:54 PM 34.0 °F 24.2 °F 26.1 °F 73% 29.97 in 10.0 mi West 15.0 mph 25.3 mph N/A   Overcast